| time (UTC) | temp F | wind direction | speed MPH | gust MPH | rain 1hr in | rain 24hr in | rain mn in | humidity % | barometer mb |
| 20260505183047 | 59 | 93 | 0.0 | 3.0 | 0.00 | 0.00 | 0.00 | 76 | 1014.3 |
| 20260505182546 | 59 | 93 | 0.0 | 3.0 | 0.00 | 0.00 | 0.00 | 77 | 1014.3 |
| 20260505182048 | 59 | 93 | 1.0 | 4.0 | 0.00 | 0.00 | 0.00 | 78 | 1014.3 |
| 20260505181550 | 59 | 93 | 2.0 | 4.0 | 0.00 | 0.00 | 0.00 | 77 | 1014.3 |
| 20260505181045 | 58 | 93 | 0.0 | 2.0 | 0.00 | 0.00 | 0.00 | 78 | 1014.3 |
| 20260505180545 | 58 | 93 | 0.0 | 3.0 | 0.00 | 0.00 | 0.00 | 77 | 1014.2 |
| 20260505180045 | 58 | 93 | 0.0 | 3.0 | 0.00 | 0.00 | 0.00 | 77 | 1014.2 |
| 20260505175546 | 58 | 93 | 0.0 | 3.0 | 0.00 | 0.00 | 0.00 | 78 | 1014.2 |
| 20260505175044 | 58 | 93 | 1.0 | 3.0 | 0.00 | 0.00 | 0.00 | 78 | 1014.3 |
| 20260505174552 | 58 | 93 | 0.0 | 4.0 | 0.00 | 0.00 | 0.00 | 80 | 1014.3 |
| 20260505174044 | 57 | 93 | 0.0 | 4.0 | 0.00 | 0.00 | 0.00 | 79 | 1014.3 |
| 20260505173545 | 57 | 93 | 1.0 | 4.0 | 0.00 | 0.00 | 0.00 | 79 | 1014.3 |
| 20260505173043 | 57 | 93 | 1.0 | 4.0 | 0.00 | 0.00 | 0.00 | 79 | 1014.2 |
| 20260505172542 | 57 | 93 | 1.0 | 4.0 | 0.00 | 0.00 | 0.00 | 80 | 1014.2 |
| 20260505172042 | 57 | 93 | 0.0 | 3.0 | 0.00 | 0.00 | 0.00 | 80 | 1014.2 |
| 20260505171542 | 57 | 93 | 2.0 | 3.0 | 0.00 | 0.00 | 0.00 | 79 | 1014.1 |
| 20260505171044 | 57 | 93 | 0.0 | 3.0 | 0.00 | 0.00 | 0.00 | 80 | 1014.0 |
| 20260505170540 | 57 | 93 | 1.0 | 3.0 | 0.00 | 0.00 | 0.00 | 79 | 1014.0 |
| 20260505170040 | 57 | 93 | 1.0 | 3.0 | 0.00 | 0.00 | 0.00 | 80 | 1014.0 |
| 20260505165540 | 57 | 93 | 0.0 | 3.0 | 0.00 | 0.00 | 0.00 | 80 | 1013.9 |
| 20260505165041 | 57 | 93 | 1.0 | 3.0 | 0.00 | 0.00 | 0.00 | 80 | 1013.9 |
| 20260505164542 | 57 | 93 | 0.0 | 2.0 | 0.00 | 0.00 | 0.00 | 81 | 1013.9 |
| 20260505164041 | 57 | 93 | 0.0 | 3.0 | 0.00 | 0.00 | 0.00 | 80 | 1013.9 |
| 20260505163538 | 57 | 93 | 1.0 | 3.0 | 0.00 | 0.00 | 0.00 | 80 | 1013.9 |
| 20260505163048 | 57 | 93 | 0.0 | 1.0 | 0.00 | 0.00 | 0.00 | 81 | 1013.9 |
| 20260505162538 | 56 | 93 | 0.0 | 3.0 | 0.00 | 0.00 | 0.00 | 82 | 1013.9 |
| 20260505162037 | 56 | 93 | 0.0 | 3.0 | 0.00 | 0.00 | 0.00 | 82 | 1013.8 |
| 20260505161537 | 56 | 93 | 0.0 | 2.0 | 0.00 | 0.00 | 0.00 | 82 | 1013.8 |
| 20260505161037 | 56 | 93 | 0.0 | 3.0 | 0.00 | 0.00 | 0.00 | 82 | 1013.8 |
| 20260505160537 | 55 | 93 | 0.0 | 3.0 | 0.00 | 0.00 | 0.00 | 83 | 1013.7 |
| 20260505153035 | 54 | 93 | 1.0 | 4.0 | 0.00 | 0.00 | 0.00 | 85 | 1013.7 |
| 20260505152534 | 54 | 93 | 0.0 | 2.0 | 0.00 | 0.00 | 0.00 | 85 | 1013.7 |
| 20260505152033 | 54 | 93 | 0.0 | 2.0 | 0.00 | 0.00 | 0.00 | 85 | 1013.7 |
| 20260505151533 | 54 | 93 | 0.0 | 2.0 | 0.00 | 0.00 | 0.00 | 86 | 1013.6 |
| 20260505151035 | 54 | 93 | 0.0 | 2.0 | 0.00 | 0.00 | 0.00 | 86 | 1013.6 |
| 20260505150533 | 54 | 93 | 0.0 | 4.0 | 0.00 | 0.00 | 0.00 | 87 | 1013.6 |
| 20260505140525 | 54 | 93 | 0.0 | 0.0 | 0.00 | 0.00 | 0.00 | 84 | 1013.1 |
| 20260505125018 | 55 | 93 | 0.0 | 3.0 | 0.00 | 0.00 | 0.00 | 82 | 1012.6 |
| 20260505124517 | 55 | 93 | 1.0 | 2.0 | 0.00 | 0.00 | 0.00 | 82 | 1012.6 |
| 20260505124017 | 55 | 93 | 0.0 | 3.0 | 0.00 | 0.00 | 0.00 | 81 | 1012.6 |
| 20260505123518 | 55 | 93 | 1.0 | 3.0 | 0.00 | 0.00 | 0.00 | 82 | 1012.6 |
| 20260505123016 | 54 | 93 | 0.0 | 2.0 | 0.00 | 0.00 | 0.00 | 82 | 1012.5 |
| 20260505122515 | 54 | 93 | 0.0 | 3.0 | 0.00 | 0.00 | 0.00 | 82 | 1012.6 |
| 20260505122016 | 54 | 93 | 0.0 | 3.0 | 0.00 | 0.00 | 0.00 | 83 | 1012.5 |
| 20260505121515 | 54 | 93 | 0.0 | 2.0 | 0.00 | 0.00 | 0.00 | 82 | 1012.5 |
| 20260505121015 | 54 | 93 | 1.0 | 4.0 | 0.00 | 0.00 | 0.00 | 82 | 1012.5 |
| 20260505120514 | 54 | 93 | 1.0 | 4.0 | 0.00 | 0.00 | 0.00 | 82 | 1012.5 |
| 20260505120015 | 54 | 93 | 0.0 | 4.0 | 0.00 | 0.00 | 0.00 | 82 | 1012.5 |
| 20260505115513 | 54 | 93 | 0.0 | 3.0 | 0.00 | 0.00 | 0.00 | 82 | 1012.5 |
| 20260505115013 | 54 | 93 | 0.0 | 3.0 | 0.00 | 0.00 | 0.00 | 82 | 1012.5 |
| 20260505114512 | 54 | 93 | 0.0 | 4.0 | 0.00 | 0.00 | 0.00 | 82 | 1012.5 |
| 20260505114013 | 54 | 93 | 1.0 | 4.0 | 0.00 | 0.00 | 0.00 | 82 | 1012.5 |
| 20260505113511 | 54 | 93 | 0.0 | 3.0 | 0.00 | 0.00 | 0.00 | 82 | 1012.4 |
| 20260505113011 | 54 | 93 | 1.0 | 3.0 | 0.00 | 0.00 | 0.00 | 82 | 1012.4 |
| 20260505112514 | 54 | 93 | 1.0 | 3.0 | 0.00 | 0.00 | 0.00 | 82 | 1012.4 |
| 20260505112011 | 54 | 93 | 0.0 | 2.0 | 0.00 | 0.00 | 0.00 | 82 | 1012.4 |
| 20260505111513 | 54 | 93 | 0.0 | 3.0 | 0.00 | 0.00 | 0.00 | 82 | 1012.3 |
| 20260505111011 | 54 | 93 | 0.0 | 3.0 | 0.00 | 0.00 | 0.00 | 82 | 1012.3 |
| 20260505110510 | 55 | 93 | 0.0 | 4.0 | 0.00 | 0.00 | 0.00 | 82 | 1012.3 |
| 20260505102003 | 56 | 93 | 0.0 | 2.0 | 0.00 | 0.00 | 0.00 | 79 | 1011.8 |
| 20260505101504 | 55 | 93 | 0.0 | 3.0 | 0.00 | 0.00 | 0.00 | 81 | 1011.8 |
| 20260505101003 | 55 | 93 | 1.0 | 3.0 | 0.00 | 0.00 | 0.00 | 81 | 1011.9 |
| 20260505100504 | 55 | 93 | 0.0 | 3.0 | 0.00 | 0.00 | 0.00 | 81 | 1011.9 |
| 20260505100003 | 55 | 93 | 0.0 | 2.0 | 0.00 | 0.00 | 0.00 | 81 | 1011.9 |
| 20260505095503 | 55 | 93 | 0.0 | 2.0 | 0.00 | 0.00 | 0.00 | 81 | 1011.8 |
| 20260505095004 | 55 | 93 | 0.0 | 2.0 | 0.00 | 0.00 | 0.00 | 81 | 1011.9 |
| 20260505094503 | 55 | 93 | 0.0 | 4.0 | 0.00 | 0.00 | 0.00 | 81 | 1011.8 |
| 20260505094002 | 56 | 93 | 0.0 | 4.0 | 0.00 | 0.00 | 0.00 | 80 | 1011.9 |
| 20260505093500 | 56 | 93 | 1.0 | 4.0 | 0.00 | 0.00 | 0.00 | 81 | 1011.8 |
| 20260505093108 | 56 | 93 | 0.0 | 3.0 | 0.00 | 0.00 | 0.00 | 81 | 1011.7 |
| 20260505092558 | 56 | 93 | 0.0 | 3.0 | 0.00 | 0.00 | 0.00 | 80 | 1011.6 |
| 20260505092058 | 56 | 93 | 1.0 | 4.0 | 0.00 | 0.00 | 0.00 | 80 | 1011.6 |
| 20260505091557 | 56 | 93 | 1.0 | 4.0 | 0.00 | 0.00 | 0.00 | 79 | 1011.6 |
| 20260505091056 | 57 | 93 | 1.0 | 4.0 | 0.00 | 0.00 | 0.00 | 79 | 1011.5 |
| 20260505090556 | 57 | 93 | 0.0 | 3.0 | 0.00 | 0.00 | 0.00 | 79 | 1011.5 |
| 20260505090057 | 57 | 93 | 1.0 | 3.0 | 0.00 | 0.00 | 0.00 | 79 | 1011.4 |
| 20260505085555 | 57 | 93 | 0.0 | 1.0 | 0.00 | 0.00 | 0.00 | 79 | 1011.5 |
| 20260505085055 | 57 | 93 | 0.0 | 2.0 | 0.00 | 0.00 | 0.00 | 79 | 1011.4 |
| 20260505084554 | 57 | 93 | 0.0 | 3.0 | 0.00 | 0.00 | 0.00 | 80 | 1011.3 |
| 20260505084053 | 57 | 93 | 0.0 | 3.0 | 0.00 | 0.00 | 0.00 | 80 | 1011.3 |
| 20260505083553 | 57 | 93 | 1.0 | 3.0 | 0.00 | 0.00 | 0.00 | 80 | 1011.3 |
| 20260505083054 | 57 | 93 | 0.0 | 4.0 | 0.00 | 0.00 | 0.00 | 80 | 1011.3 |
| 20260505082553 | 57 | 93 | 1.0 | 4.0 | 0.00 | 0.00 | 0.00 | 79 | 1011.2 |
| 20260505082053 | 57 | 93 | 2.0 | 6.0 | 0.00 | 0.00 | 0.00 | 80 | 1011.3 |
| 20260505081603 | 57 | 93 | 2.0 | 6.0 | 0.00 | 0.00 | 0.00 | 80 | 1011.3 |
| 20260505081053 | 57 | 93 | 2.0 | 6.0 | 0.00 | 0.00 | 0.00 | 80 | 1011.3 |
| 20260505080554 | 57 | 93 | 0.0 | 3.0 | 0.00 | 0.00 | 0.00 | 80 | 1011.2 |
| 20260505080059 | 57 | 93 | 0.0 | 1.0 | 0.00 | 0.00 | 0.00 | 80 | 1011.1 |
| 20260505075554 | 57 | 93 | 0.0 | 2.0 | 0.00 | 0.00 | 0.00 | 80 | 1011.1 |
| 20260505075051 | 57 | 93 | 0.0 | 2.0 | 0.00 | 0.00 | 0.00 | 80 | 1011.1 |
| 20260505074549 | 57 | 93 | 0.0 | 3.0 | 0.00 | 0.00 | 0.00 | 80 | 1011.0 |
| 20260505074049 | 57 | 93 | 0.0 | 4.0 | 0.00 | 0.00 | 0.00 | 79 | 1010.9 |
| 20260505073548 | 57 | 93 | 2.0 | 4.0 | 0.00 | 0.00 | 0.00 | 79 | 1010.9 |
| 20260505073050 | 57 | 93 | 0.0 | 2.0 | 0.00 | 0.00 | 0.00 | 79 | 1010.7 |
| 20260505072547 | 57 | 93 | 0.0 | 3.0 | 0.00 | 0.00 | 0.00 | 79 | 1010.7 |
| 20260505072048 | 57 | 93 | 1.0 | 6.0 | 0.00 | 0.00 | 0.00 | 79 | 1010.6 |
| 20260505071551 | 58 | 93 | 1.0 | 6.0 | 0.00 | 0.00 | 0.00 | 78 | 1010.6 |
| 20260505071042 | 58 | 117 | 2.0 | 6.0 | 0.00 | 0.00 | 0.00 | 78 | 1010.5 |
| 20260505070545 | 58 | 120 | 1.0 | 4.0 | 0.00 | 0.00 | 0.00 | 78 | 1010.5 |
| 20260505070040 | 58 | 120 | 1.0 | 4.0 | 0.00 | 0.00 | 0.00 | 78 | 1010.5 |
| 20260505065539 | 59 | 120 | 1.0 | 6.0 | 0.00 | 0.00 | 0.00 | 78 | 1010.5 |
| 20260505065039 | 59 | 120 | 1.0 | 6.0 | 0.00 | 0.00 | 0.00 | 77 | 1010.3 |
| 20260505064541 | 59 | 126 | 2.0 | 6.0 | 0.00 | 0.00 | 0.00 | 77 | 1010.3 |
| 20260505064038 | 60 | 109 | 2.0 | 6.0 | 0.00 | 0.00 | 0.00 | 76 | 1010.2 |
| 20260505063538 | 60 | 131 | 1.0 | 5.0 | 0.00 | 0.00 | 0.00 | 76 | 1010.1 |
| 20260505063038 | 60 | 131 | 0.0 | 4.0 | 0.00 | 0.00 | 0.00 | 75 | 1010.0 |
| 20260505062539 | 61 | 131 | 2.0 | 4.0 | 0.00 | 0.00 | 0.00 | 75 | 1010.0 |
| 20260505062038 | 61 | 130 | 1.0 | 5.0 | 0.00 | 0.00 | 0.00 | 75 | 1009.8 |
| 20260505061538 | 61 | 130 | 1.0 | 5.0 | 0.00 | 0.00 | 0.00 | 75 | 1009.8 |
| 20260505061037 | 61 | 128 | 1.0 | 5.0 | 0.00 | 0.00 | 0.00 | 75 | 1009.7 |
| 20260505060541 | 62 | 128 | 2.0 | 5.0 | 0.00 | 0.00 | 0.00 | 74 | 1009.6 |
| 20260505060037 | 62 | 128 | 0.0 | 4.0 | 0.00 | 0.00 | 0.00 | 74 | 1009.5 |
| 20260505055539 | 62 | 128 | 1.0 | 5.0 | 0.00 | 0.00 | 0.00 | 74 | 1009.6 |
| 20260505055037 | 63 | 128 | 2.0 | 5.0 | 0.00 | 0.00 | 0.00 | 73 | 1009.5 |
| 20260505054549 | 63 | 116 | 0.0 | 4.0 | 0.00 | 0.00 | 0.00 | 73 | 1009.4 |
| 20260505054037 | 63 | 115 | 0.0 | 3.0 | 0.00 | 0.00 | 0.00 | 74 | 1009.5 |
| 20260505053536 | 63 | 115 | 1.0 | 3.0 | 0.00 | 0.00 | 0.00 | 73 | 1009.4 |
| 20260505053052 | 63 | 115 | 0.0 | 2.0 | 0.00 | 0.00 | 0.00 | 73 | 1009.4 |
| 20260505052536 | 63 | 115 | 0.0 | 6.0 | 0.00 | 0.00 | 0.00 | 73 | 1009.3 |
| 20260505052038 | 64 | 115 | 1.0 | 6.0 | 0.00 | 0.00 | 0.00 | 73 | 1009.2 |
| 20260505051541 | 64 | 139 | 2.0 | 4.0 | 0.00 | 0.00 | 0.00 | 72 | 1009.2 |
| 20260505051036 | 64 | 161 | 0.0 | 3.0 | 0.00 | 0.00 | 0.00 | 72 | 1009.2 |
| 20260505050536 | 65 | 161 | 2.0 | 4.0 | 0.00 | 0.00 | 0.00 | 71 | 1009.2 |
| 20260505041536 | 68 | 161 | 0.0 | 0.0 | 0.00 | 0.00 | 0.00 | 68 | 1008.6 |
| 20260505041034 | 68 | 161 | 0.0 | 0.0 | 0.00 | 0.00 | 0.00 | 69 | 1008.5 |
| 20260505040537 | 69 | 161 | 0.0 | 2.0 | 0.00 | 0.00 | 0.00 | 68 | 1008.5 |
| 20260505040041 | 69 | 161 | 0.0 | 2.0 | 0.00 | 0.00 | 0.00 | 68 | 1008.5 |
| 20260505035535 | 69 | 161 | 0.0 | 2.0 | 0.00 | 0.00 | 0.00 | 68 | 1008.4 |
| 20260505035035 | 69 | 161 | 0.0 | 2.0 | 0.00 | 0.00 | 0.00 | 68 | 1008.3 |
| 20260505034533 | 70 | 161 | 0.0 | 3.0 | 0.00 | 0.00 | 0.00 | 68 | 1008.2 |
| 20260505034033 | 70 | 161 | 1.0 | 5.0 | 0.00 | 0.00 | 0.00 | 67 | 1008.1 |
| 20260505033533 | 70 | 167 | 1.0 | 5.0 | 0.00 | 0.00 | 0.00 | 67 | 1008.1 |
| 20260505033040 | 70 | 172 | 1.0 | 4.0 | 0.00 | 0.00 | 0.00 | 67 | 1007.9 |
| 20260505032532 | 71 | 168 | 0.0 | 3.0 | 0.00 | 0.00 | 0.00 | 67 | 1007.9 |
| 20260505032032 | 71 | 168 | 0.0 | 4.0 | 0.00 | 0.00 | 0.00 | 67 | 1007.7 |
| 20260505031533 | 71 | 168 | 1.0 | 4.0 | 0.00 | 0.00 | 0.00 | 67 | 1007.7 |
| 20260505031032 | 71 | 175 | 1.0 | 7.0 | 0.00 | 0.00 | 0.00 | 66 | 1007.7 |
| 20260505030534 | 72 | 173 | 2.0 | 7.0 | 0.00 | 0.00 | 0.00 | 67 | 1007.6 |
| 20260505030033 | 72 | 161 | 2.0 | 7.0 | 0.00 | 0.00 | 0.00 | 67 | 1007.6 |
| 20260505025533 | 72 | 160 | 2.0 | 7.0 | 0.00 | 0.00 | 0.00 | 66 | 1007.5 |
| 20260505025031 | 72 | 142 | 1.0 | 4.0 | 0.00 | 0.00 | 0.00 | 66 | 1007.4 |
| 20260505024531 | 72 | 139 | 1.0 | 3.0 | 0.00 | 0.00 | 0.00 | 66 | 1007.3 |
| 20260505024032 | 72 | 140 | 1.0 | 4.0 | 0.00 | 0.00 | 0.00 | 65 | 1007.3 |
| 20260505023531 | 73 | 140 | 2.0 | 7.0 | 0.00 | 0.00 | 0.00 | 65 | 1007.3 |
| 20260505023031 | 73 | 134 | 2.0 | 7.0 | 0.00 | 0.00 | 0.00 | 65 | 1007.3 |
| 20260505022531 | 73 | 131 | 1.0 | 8.0 | 0.00 | 0.00 | 0.00 | 65 | 1007.3 |
| 20260505022031 | 73 | 132 | 3.0 | 8.0 | 0.00 | 0.00 | 0.00 | 64 | 1007.3 |
| 20260505021531 | 73 | 184 | 2.0 | 6.0 | 0.00 | 0.00 | 0.00 | 64 | 1007.2 |
| 20260505021031 | 73 | 153 | 2.0 | 7.0 | 0.00 | 0.00 | 0.00 | 64 | 1007.2 |
| 20260505020536 | 74 | 170 | 3.0 | 7.0 | 0.00 | 0.00 | 0.00 | 64 | 1007.2 |
| 20260505020030 | 74 | 172 | 2.0 | 5.0 | 0.00 | 0.00 | 0.00 | 64 | 1007.3 |
| 20260505015530 | 74 | 227 | 1.0 | 6.0 | 0.00 | 0.00 | 0.00 | 64 | 1007.3 |
| 20260505015030 | 74 | 202 | 3.0 | 6.0 | 0.00 | 0.00 | 0.00 | 63 | 1007.3 |
| 20260505014530 | 75 | 129 | 0.0 | 4.0 | 0.00 | 0.00 | 0.00 | 63 | 1007.2 |
| 20260505014030 | 75 | 128 | 1.0 | 4.0 | 0.00 | 0.00 | 0.00 | 63 | 1007.3 |
| 20260505013530 | 74 | 143 | 1.0 | 4.0 | 0.00 | 0.00 | 0.00 | 63 | 1007.3 |
| 20260505013031 | 75 | 140 | 0.0 | 8.0 | 0.00 | 0.00 | 0.00 | 62 | 1007.3 |
| 20260505012531 | 75 | 132 | 2.0 | 8.0 | 0.00 | 0.00 | 0.00 | 61 | 1007.3 |
| 20260505012030 | 75 | 166 | 1.0 | 8.0 | 0.00 | 0.00 | 0.00 | 61 | 1007.3 |
| 20260505011529 | 76 | 192 | 3.0 | 6.0 | 0.00 | 0.00 | 0.00 | 61 | 1007.5 |
| 20260505011028 | 76 | 140 | 1.0 | 7.0 | 0.00 | 0.00 | 0.00 | 60 | 1007.5 |
| 20260505010528 | 77 | 146 | 2.0 | 7.0 | 0.00 | 0.00 | 0.00 | 60 | 1007.5 |
| 20260505010028 | 77 | 130 | 1.0 | 6.0 | 0.00 | 0.00 | 0.00 | 60 | 1007.5 |
| 20260505005532 | 77 | 178 | 3.0 | 6.0 | 0.00 | 0.00 | 0.00 | 60 | 1007.6 |
| 20260505005030 | 76 | 132 | 3.0 | 6.0 | 0.00 | 0.00 | 0.00 | 61 | 1007.7 |
| 20260505004528 | 76 | 212 | 2.0 | 6.0 | 0.00 | 0.00 | 0.00 | 60 | 1007.7 |
| 20260505004027 | 76 | 161 | 2.0 | 6.0 | 0.00 | 0.00 | 0.00 | 60 | 1007.7 |
| 20260505003527 | 76 | 128 | 1.0 | 6.0 | 0.00 | 0.00 | 0.00 | 60 | 1007.6 |
| 20260505003027 | 76 | 162 | 2.0 | 7.0 | 0.00 | 0.00 | 0.00 | 61 | 1007.6 |
| 20260505002527 | 76 | 136 | 2.0 | 7.0 | 0.00 | 0.00 | 0.00 | 60 | 1007.7 |
| 20260505002027 | 76 | 221 | 2.0 | 7.0 | 0.00 | 0.00 | 0.00 | 60 | 1007.6 |
| 20260505001527 | 76 | 153 | 2.0 | 9.0 | 0.00 | 0.00 | 0.00 | 61 | 1007.7 |
| 20260505001026 | 76 | 148 | 4.0 | 9.0 | 0.00 | 0.00 | 0.00 | 62 | 1007.8 |
| 20260505000529 | 75 | 161 | 3.0 | 10.0 | 0.00 | 0.00 | 0.00 | 62 | 1007.8 |
| 20260505000028 | 75 | 136 | 3.0 | 7.0 | 0.00 | 0.00 | 0.00 | 61 | 1007.9 |
| 20260504235526 | 75 | 132 | 2.0 | 8.0 | 0.00 | 0.00 | 0.00 | 59 | 1007.9 |
| 20260504235027 | 76 | 167 | 3.0 | 11.0 | 0.00 | 0.00 | 0.00 | 60 | 1007.9 |
| 20260504234525 | 77 | 140 | 4.0 | 11.0 | 0.00 | 0.00 | 0.00 | 58 | 1007.9 |
| 20260504234026 | 76 | 83 | 0.0 | 8.0 | 0.00 | 0.00 | 0.00 | 59 | 1007.8 |
| 20260504233526 | 76 | 143 | 3.0 | 10.0 | 0.00 | 0.00 | 0.00 | 60 | 1007.9 |
| 20260504233025 | 75 | 182 | 4.0 | 10.0 | 0.00 | 0.00 | 0.00 | 59 | 1008.0 |
| 20260504232527 | 75 | 140 | 2.0 | 7.0 | 0.00 | 0.00 | 0.00 | 62 | 1008.0 |
| 20260504232024 | 75 | 147 | 3.0 | 7.0 | 0.00 | 0.00 | 0.00 | 59 | 1008.0 |
| 20260504231524 | 75 | 198 | 3.0 | 7.0 | 0.00 | 0.00 | 0.00 | 61 | 1008.1 |
| 20260504231024 | 75 | 138 | 2.0 | 8.0 | 0.00 | 0.00 | 0.00 | 59 | 1008.1 |
| 20260504230524 | 76 | 136 | 0.0 | 7.0 | 0.00 | 0.00 | 0.00 | 59 | 1008.1 |
| 20260504230027 | 76 | 117 | 3.0 | 7.0 | 0.00 | 0.00 | 0.00 | 58 | 1008.2 |
| 20260504225526 | 76 | 170 | 2.0 | 7.0 | 0.00 | 0.00 | 0.00 | 59 | 1008.3 |
| 20260504225023 | 75 | 194 | 2.0 | 7.0 | 0.00 | 0.00 | 0.00 | 59 | 1008.3 |
| 20260504224523 | 75 | 126 | 2.0 | 8.0 | 0.00 | 0.00 | 0.00 | 58 | 1008.4 |
| 20260504224024 | 76 | 107 | 4.0 | 8.0 | 0.00 | 0.00 | 0.00 | 56 | 1008.4 |
| 20260504223524 | 77 | 175 | 1.0 | 6.0 | 0.00 | 0.00 | 0.00 | 57 | 1008.6 |
| 20260504223022 | 76 | 296 | 2.0 | 4.0 | 0.00 | 0.00 | 0.00 | 60 | 1008.5 |
| 20260504222522 | 75 | 217 | 1.0 | 5.0 | 0.00 | 0.00 | 0.00 | 60 | 1008.6 |
| 20260504222019 | 74 | 130 | 1.0 | 5.0 | 0.00 | 0.00 | 0.00 | 60 | 1008.7 |
| 20260504221523 | 74 | 129 | 2.0 | 8.0 | 0.00 | 0.00 | 0.00 | 58 | 1008.8 |
| 20260504221018 | 74 | 111 | 1.0 | 5.0 | 0.00 | 0.00 | 0.00 | 59 | 1008.9 |
| 20260504220517 | 74 | 219 | 1.0 | 7.0 | 0.00 | 0.00 | 0.00 | 59 | 1009.0 |
| 20260504220021 | 74 | 211 | 3.0 | 7.0 | 0.00 | 0.00 | 0.00 | 60 | 1009.0 |
| 20260504215516 | 74 | 141 | 2.0 | 8.0 | 0.00 | 0.00 | 0.00 | 60 | 1009.1 |
| 20260504215019 | 74 | 195 | 3.0 | 7.0 | 0.00 | 0.00 | 0.00 | 62 | 1009.1 |
| 20260504214514 | 73 | 158 | 2.0 | 6.0 | 0.00 | 0.00 | 0.00 | 61 | 1009.1 |
| 20260504214012 | 72 | 164 | 1.0 | 5.0 | 0.00 | 0.00 | 0.00 | 64 | 1009.2 |
| 20260504213511 | 71 | 124 | 2.0 | 7.0 | 0.00 | 0.00 | 0.00 | 62 | 1009.3 |
| 20260504213012 | 71 | 136 | 3.0 | 8.0 | 0.00 | 0.00 | 0.00 | 61 | 1009.3 |
| 20260504212511 | 72 | 121 | 2.0 | 8.0 | 0.00 | 0.00 | 0.00 | 63 | 1009.4 |
| 20260504212009 | 71 | 211 | 1.0 | 5.0 | 0.00 | 0.00 | 0.00 | 65 | 1009.5 |
| 20260504211508 | 70 | 134 | 1.0 | 8.0 | 0.00 | 0.00 | 0.00 | 66 | 1009.6 |
| 20260504211008 | 70 | 132 | 3.0 | 8.0 | 0.00 | 0.00 | 0.00 | 64 | 1009.7 |
| 20260504210507 | 70 | 83 | 1.0 | 7.0 | 0.00 | 0.00 | 0.00 | 64 | 1009.7 |
| 20260504210007 | 70 | 121 | 2.0 | 7.0 | 0.00 | 0.00 | 0.00 | 64 | 1009.8 |
| 20260504205509 | 70 | 188 | 2.0 | 7.0 | 0.00 | 0.00 | 0.00 | 67 | 1009.9 |
| 20260504205007 | 69 | 130 | 3.0 | 7.0 | 0.00 | 0.00 | 0.00 | 64 | 1010.0 |
| 20260504204504 | 69 | 132 | 2.0 | 6.0 | 0.00 | 0.00 | 0.00 | 67 | 1010.1 |
| 20260504204004 | 68 | 219 | 2.0 | 8.0 | 0.00 | 0.00 | 0.00 | 66 | 1010.2 |
| 20260504203504 | 68 | 64 | 3.0 | 8.0 | 0.00 | 0.00 | 0.00 | 65 | 1010.3 |
| 20260504203009 | 68 | 149 | 3.0 | 6.0 | 0.00 | 0.00 | 0.00 | 66 | 1010.2 |
| 20260504202505 | 68 | 205 | 2.0 | 7.0 | 0.00 | 0.00 | 0.00 | 67 | 1010.3 |
| 20260504202003 | 67 | 108 | 3.0 | 7.0 | 0.00 | 0.00 | 0.00 | 67 | 1010.3 |
| 20260504201503 | 67 | 121 | 2.0 | 7.0 | 0.00 | 0.00 | 0.00 | 66 | 1010.4 |
| 20260504201002 | 67 | 130 | 1.0 | 7.0 | 0.00 | 0.00 | 0.00 | 68 | 1010.4 |
| 20260504200502 | 66 | 88 | 1.0 | 8.0 | 0.00 | 0.00 | 0.00 | 68 | 1010.6 |
| 20260504200003 | 66 | 162 | 4.0 | 8.0 | 0.00 | 0.00 | 0.00 | 69 | 1010.6 |
| 20260504195502 | 66 | 198 | 1.0 | 7.0 | 0.00 | 0.00 | 0.00 | 68 | 1010.6 |
| 20260504195105 | 66 | 182 | 1.0 | 7.0 | 0.00 | 0.00 | 0.00 | 69 | 1010.6 |
| 20260504194501 | 66 | 90 | 1.0 | 5.0 | 0.00 | 0.00 | 0.00 | 71 | 1010.6 |
| 20260504194003 | 66 | 159 | 2.0 | 7.0 | 0.00 | 0.00 | 0.00 | 72 | 1010.6 |
| 20260504193500 | 65 | 128 | 2.0 | 8.0 | 0.00 | 0.00 | 0.00 | 69 | 1010.7 |
| 20260504193000 | 65 | 147 | 2.0 | 8.0 | 0.00 | 0.00 | 0.00 | 70 | 1010.7 |
| 20260504192500 | 64 | 167 | 2.0 | 10.0 | 0.00 | 0.00 | 0.00 | 71 | 1010.8 |
| 20260504192003 | 65 | 108 | 4.0 | 10.0 | 0.00 | 0.00 | 0.00 | 71 | 1010.9 |
| 20260504191601 | 64 | 158 | 2.0 | 7.0 | 0.00 | 0.00 | 0.00 | 72 | 1010.8 |
| 20260504191101 | 63 | 182 | 3.0 | 6.0 | 0.00 | 0.00 | 0.00 | 74 | 1010.8 |
| 20260504190600 | 63 | 126 | 3.0 | 7.0 | 0.00 | 0.00 | 0.00 | 73 | 1010.9 |
| 20260504190111 | 62 | 187 | 2.0 | 6.0 | 0.00 | 0.00 | 0.00 | 75 | 1010.9 |
| 20260504185602 | 61 | 125 | 4.0 | 8.0 | 0.00 | 0.00 | 0.00 | 74 | 1011.0 |
| 20260504185059 | 61 | 126 | 3.0 | 8.0 | 0.00 | 0.00 | 0.00 | 74 | 1011.1 |
| 20260504184615 | 61 | 120 | 2.0 | 8.0 | 0.00 | 0.00 | 0.00 | 74 | 1011.1 |
| 20260504184059 | 61 | 178 | 0.0 | 7.0 | 0.00 | 0.00 | 0.00 | 75 | 1011.2 |
| 20260504183559 | 61 | 148 | 2.0 | 7.0 | 0.00 | 0.00 | 0.00 | 74 | 1011.2 |